Weather History for Los Alamos, NM

Change the Weather History Date:

Tuesday, December 4, 2012

  Actual Average Record
Temperature  
Mean Temperature 42 °F -  
Max Temperature 49 °F 45 °F 60 °F (1987)
Min Temperature 34 °F 22 °F 8 °F (1952)
Degree Days  
Heating Degree Days 24    
Moisture  
Dew Point 24 °F    
Average Humidity 48    
Maximum Humidity 71    
Minimum Humidity 32    
Precipitation  
Precipitation 0.00 in - - ()
Sea Level Pressure  
Sea Level Pressure 30.39 in    
Wind  
Wind Speed 2 mph (ENE)    
Max Wind Speed 10 mph    
Max Gust Speed 16 mph    
Visibility 10 miles    
Events      
Averages and records for this station are not official NWS values.
T = Trace of Precipitation, MM = Missing Value Source: NWS Daily Summary

Daily Weather History Graph

Daily Weather History Graph

Search for Another Location

Airport:

Trip Planner

Search our weather history database for the weather conditions in past years. The results will help you decide how hot, cold, wet, or windy it might be!

Date:

Astronomy

Dec. 04, 2012 Rise Set
Actual Time 7:00 AM MST 4:50 PM MST
Civil Twilight 6:31 AM MST 5:19 PM MST
Nautical Twilight 5:59 AM MST 5:50 PM MST
Astronomical Twilight 5:29 AM MST 6:21 PM MST
Moon 10:33 PM MST (12/4) 11:02 AM MST (12/4)
Length of Visible Light 10h 47m
Length of Day
9h 50m
Waning Gibbous, 69% of the Moon is Illuminated
Dec 4
Waning Gibbous
Dec 6
Last Quarter
Dec 13
New
Dec 19
First Quarter
Dec 28
Full

Hourly Weather History & Observations

Time (MST) Temp. Windchill Dew Point Humidity Pressure Visibility Wind Dir Wind Speed Gust Speed Precip Events Conditions
12:15 AM 44.1 °F - 28.2 °F 54% 30.29 in 10.0 mi Calm Calm - N/A   Clear
12:35 AM 43.0 °F - 28.9 °F 58% 30.30 in 10.0 mi Calm Calm - N/A   Clear
12:55 AM 43.7 °F - 27.3 °F 53% 30.29 in 10.0 mi Calm Calm - N/A   Clear
1:15 AM 43.2 °F - 28.0 °F 55% 30.29 in 10.0 mi Calm Calm - N/A   Clear
1:55 AM 42.1 °F - 29.5 °F 61% 30.29 in 10.0 mi Calm Calm - N/A   Clear
2:15 AM 41.2 °F 39.2 °F 29.5 °F 63% 30.30 in 10.0 mi ESE 3.5 mph - N/A   Clear
2:35 AM 40.6 °F - 29.3 °F 64% 30.30 in 10.0 mi Calm Calm - N/A   Clear
3:15 AM 38.7 °F - 28.8 °F 68% 30.31 in 10.0 mi Calm Calm - N/A   Clear
3:35 AM 38.7 °F 36.3 °F 28.4 °F 67% 30.33 in 10.0 mi SW 3.5 mph - N/A   Clear
3:55 AM 39.6 °F - 28.8 °F 65% 30.31 in 10.0 mi Calm Calm - N/A   Clear
4:15 AM 38.3 °F - 28.4 °F 68% 30.33 in 10.0 mi Calm Calm - N/A   Clear
4:35 AM 38.5 °F - 28.6 °F 68% 30.33 in 10.0 mi Calm Calm - N/A   Clear
4:55 AM 39.2 °F - 28.4 °F 65% 30.34 in 10.0 mi Calm Calm - N/A   Clear
5:15 AM 38.8 °F - 28.4 °F 66% 30.35 in 10.0 mi Calm Calm - N/A   Clear
5:35 AM 39.2 °F - 28.4 °F 65% 30.35 in 10.0 mi Calm Calm - N/A   Clear
5:55 AM 39.2 °F 35.0 °F 27.1 °F 62% 30.36 in 10.0 mi WSW 5.8 mph - N/A   Clear
6:15 AM 34.3 °F - 22.3 °F 61% 30.37 in 10.0 mi Calm Calm - N/A   Clear
6:35 AM 36.5 °F - 21.7 °F 55% 30.37 in 10.0 mi Calm Calm - N/A   Clear
6:55 AM 34.9 °F - 26.2 °F 71% 30.39 in 10.0 mi Calm Calm - N/A   Clear
7:15 AM 37.0 °F - 25.0 °F 62% 30.39 in 10.0 mi Calm Calm - N/A   Clear
7:35 AM 36.9 °F - 21.7 °F 54% 30.39 in 10.0 mi Calm Calm - N/A   Clear
7:55 AM 37.2 °F - 21.6 °F 53% 30.41 in 10.0 mi Calm Calm - N/A   Clear
8:15 AM 37.0 °F 34.5 °F 22.3 °F 55% 30.41 in 10.0 mi North 3.5 mph - N/A   Clear
8:35 AM 37.4 °F 34.9 °F 22.6 °F 55% 30.41 in 10.0 mi NE 3.5 mph - N/A   Clear
8:55 AM 37.6 °F 31.0 °F 24.4 °F 59% 30.43 in 10.0 mi NNE 9.2 mph - N/A   Clear
9:15 AM 39.2 °F 33.0 °F 27.1 °F 62% 30.43 in 10.0 mi NNE 9.2 mph 16.1 mph N/A   Clear
9:35 AM 40.3 °F 33.9 °F 28.0 °F 62% 30.45 in 10.0 mi North 10.4 mph - N/A   Clear
9:55 AM 41.4 °F 36.8 °F 28.2 °F 60% 30.46 in 10.0 mi North 6.9 mph - N/A   Clear
10:15 AM 42.4 °F - 28.2 °F 57% 30.46 in 10.0 mi Calm Calm - N/A   Clear
10:35 AM 43.0 °F 39.5 °F 27.3 °F 54% 30.47 in 10.0 mi NE 5.8 mph - N/A   Clear
11:15 AM 44.6 °F 41.4 °F 24.4 °F 45% 30.47 in 10.0 mi NE 5.8 mph - N/A   Clear
11:35 AM 45.3 °F - 23.9 °F 43% 30.45 in 10.0 mi Calm Calm - N/A   Clear
11:55 AM 45.5 °F 43.2 °F 24.1 °F 43% 30.45 in 10.0 mi ESE 4.6 mph - N/A   Clear
12:15 PM 44.8 °F 42.4 °F 24.6 °F 45% 30.44 in 10.0 mi ENE 4.6 mph - N/A   Clear
12:35 PM 45.5 °F 44.2 °F 24.6 °F 44% 30.43 in 10.0 mi NE 3.5 mph - N/A   Clear
12:55 PM 45.5 °F - 24.3 °F 43% 30.41 in 10.0 mi Calm Calm - N/A   Clear
1:15 PM 45.9 °F - 23.9 °F 42% 30.40 in 10.0 mi Calm Calm - N/A   Clear
1:35 PM 47.1 °F - 23.5 °F 40% 30.41 in 10.0 mi NNE 3.5 mph - N/A   Clear
1:55 PM 48.2 °F - 23.0 °F 37% 30.39 in 10.0 mi ENE 3.5 mph - N/A   Clear
2:15 PM 48.4 °F - 22.6 °F 36% 30.39 in 10.0 mi ENE 3.5 mph - N/A   Clear
2:35 PM 48.2 °F - 22.6 °F 37% 30.39 in 10.0 mi Calm Calm - N/A   Clear
2:55 PM 47.5 °F - 22.5 °F 37% 30.39 in 10.0 mi ENE 3.5 mph - N/A   Clear
3:15 PM 48.4 °F - 22.1 °F 36% 30.38 in 10.0 mi Calm Calm - N/A   Clear
3:35 PM 49.1 °F - 21.9 °F 34% 30.38 in 10.0 mi Calm Calm - N/A   Clear
3:55 PM 48.7 °F - 21.7 °F 35% 30.38 in 10.0 mi Calm Calm - N/A   Clear
4:15 PM 48.4 °F - 22.5 °F 36% 30.38 in 10.0 mi South 3.5 mph - N/A   Clear
4:35 PM 48.2 °F - 22.6 °F 37% 30.38 in 10.0 mi Calm Calm - N/A   Clear
4:55 PM 47.1 °F - 23.2 °F 39% 30.39 in 10.0 mi South 4.6 mph - N/A   Clear
5:15 PM 46.2 °F 43.3 °F 23.5 °F 41% 30.39 in 10.0 mi SSW 5.8 mph - N/A   Clear
5:35 PM 45.7 °F 42.7 °F 23.7 °F 42% 30.40 in 10.0 mi SSW 5.8 mph - N/A   Clear
5:55 PM 45.5 °F 43.2 °F 23.9 °F 43% 30.40 in 10.0 mi South 4.6 mph - N/A   Clear
6:15 PM 44.8 °F 42.4 °F 23.9 °F 44% 30.41 in 10.0 mi SSW 4.6 mph - N/A   Clear
6:35 PM 45.1 °F 42.8 °F 23.9 °F 43% 30.41 in 10.0 mi SW 4.6 mph - N/A   Clear
6:55 PM 44.6 °F 40.7 °F 23.5 °F 44% 30.41 in 10.0 mi WSW 6.9 mph - N/A   Clear
7:15 PM 45.0 °F 41.2 °F 23.5 °F 43% 30.41 in 10.0 mi West 6.9 mph - N/A   Clear
7:35 PM 46.2 °F - 23.5 °F 41% 30.41 in 10.0 mi Calm Calm - N/A   Clear
7:55 PM 46.8 °F - 21.9 °F 37% 30.41 in 10.0 mi Calm Calm - N/A   Clear
8:15 PM 46.8 °F - 21.2 °F 36% 30.41 in 10.0 mi Calm Calm - N/A   Clear
8:35 PM 45.5 °F - 19.2 °F 35% 30.40 in 10.0 mi Calm Calm - N/A   Clear
8:55 PM 45.9 °F 44.6 °F 19.4 °F 35% 30.40 in 10.0 mi West 3.5 mph - N/A   Clear
9:15 PM 44.6 °F - 19.2 °F 36% 30.40 in 10.0 mi Calm Calm - N/A   Clear
9:35 PM 43.9 °F - 18.1 °F 36% 30.41 in 10.0 mi Calm Calm - N/A   Clear
9:55 PM 46.6 °F - 18.1 °F 32% 30.40 in 10.0 mi Calm Calm - N/A   Clear
10:15 PM 44.8 °F - 17.6 °F 34% 30.41 in 10.0 mi Calm Calm - N/A   Clear
10:35 PM 46.0 °F - 17.4 °F 32% 30.40 in 10.0 mi Calm Calm - N/A   Clear
10:55 PM 44.8 °F - 17.2 °F 33% 30.40 in 10.0 mi Calm Calm - N/A   Clear
11:15 PM 42.3 °F 40.5 °F 18.0 °F 38% 30.40 in 10.0 mi East 3.5 mph - N/A   Clear
11:35 PM 41.4 °F - 17.6 °F 38% 30.39 in 10.0 mi Calm Calm - N/A   Clear
11:55 PM 39.6 °F - 18.3 °F 42% 30.39 in 10.0 mi Calm Calm - N/A   Clear